Date String (YYYY-MM-DD hh:mm:ss) UTC,Instrument flags,absolute air pressure of the measurement (hPa),sample flow rate (lpm),inlet stack bypass flow (lpm),air temperature of the measurement (°C),ambient temperature measured by the external sensor (°C),aerosol sample conditioner tube jacket temperature (°C),OPC LED temperature (°C),internal box temperature (°C),relative humidity of the measurement (%),span deviation,mass concentration of particles derived from Lorenz-Mie calculation of OPC scattering (μg/m³),mass concentration of particles derived from Lorenz-Mie calculation of OPC scattering (μg/m³),mass concentration of particles derived from Lorenz-Mie calculation of OPC scattering (μg/m³)
DateTimeUTC,F1_M11,P_M11,Q1_M11,Q2_M11,T1_M11,T2_M11,T3_M11,T4_M11,T5_M11,U1_M11,ZSPAN_M11,X2_M11,X0_M11,X1_M11
2023-06-10 11:00:00,SystemResetWarning,0829.4,4.99,000.00,029.6,027.9,000.0,038.2,031.0,19.5,0000.0,0003.56,0007.09,0002.80
2023-06-10 11:01:00,SystemResetWarning,0829.4,5.00,000.00,029.6,027.9,000.0,038.2,031.0,19.2,0000.0,0003.56,0007.04,0002.80
2023-06-10 11:02:00,SystemResetWarning,0829.4,5.00,000.00,029.6,027.9,000.0,038.2,031.0,19.3,0000.0,0003.55,0007.12,0002.79
2023-06-10 11:03:00,SystemResetWarning,0829.4,5.00,000.00,029.6,027.8,000.0,038.2,031.0,19.9,0000.0,0003.51,0006.89,0002.76
2023-06-10 11:04:00,SystemResetWarning,0829.3,5.00,000.00,029.6,027.8,000.0,038.2,031.0,19.9,0000.0,0003.51,0006.91,0002.74
2023-06-10 11:05:00,SystemResetWarning,0829.3,5.01,000.00,029.6,027.8,000.0,038.2,031.0,19.7,0000.0,0003.54,0007.08,0002.75
2023-06-10 11:06:00,SystemResetWarning,0829.3,5.00,000.00,029.6,027.8,000.0,038.2,031.0,19.5,0000.0,0003.53,0007.16,0002.75
2023-06-10 11:07:00,SystemResetWarning,0829.3,5.00,000.00,029.6,027.8,000.0,038.2,031.0,19.4,0000.0,0003.50,0007.03,0002.75
2023-06-10 11:08:00,SystemResetWarning,0829.3,5.00,000.00,029.6,027.8,000.0,038.2,031.0,19.5,0000.0,0003.51,0006.92,0002.75
2023-06-10 11:09:00,SystemResetWarning,0829.4,5.00,000.00,029.6,027.8,000.0,038.2,031.0,20.0,0000.0,0003.52,0006.83,0002.75
2023-06-10 11:10:00,SystemResetWarning,0829.3,5.00,000.00,029.5,027.8,000.0,038.2,031.0,19.7,0000.0,0003.50,0006.67,0002.75
2023-06-10 11:11:00,SystemResetWarning,0829.4,5.00,000.00,029.5,027.8,000.0,038.2,031.0,19.5,0000.0,0003.50,0006.48,0002.74
2023-06-10 11:12:00,SystemResetWarning,0829.3,5.00,000.00,029.5,027.8,000.0,038.2,031.0,19.8,0000.0,0003.50,0006.40,0002.73
2023-06-10 11:13:00,SystemResetWarning,0829.3,5.00,000.00,029.5,027.8,000.0,038.2,031.0,20.0,0000.0,0003.51,0006.73,0002.75
2023-06-10 11:14:00,SystemResetWarning,0829.4,5.00,000.00,029.5,027.7,000.0,038.2,030.9,19.7,0000.0,0003.56,0007.34,0002.78
2023-06-10 11:15:00,SystemResetWarning,0829.3,5.00,000.00,029.5,027.7,000.0,038.2,030.9,19.6,0000.0,0003.54,0007.27,0002.78
2023-06-10 11:16:00,SystemResetWarning,0829.3,5.00,000.00,029.5,027.7,000.0,038.2,030.9,19.5,0000.0,0003.55,0007.34,0002.76
2023-06-10 11:17:00,SystemResetWarning,0829.3,5.00,000.00,029.5,027.7,000.0,038.1,030.9,19.4,0000.0,0003.57,0007.36,0002.76
2023-06-10 11:18:00,SystemResetWarning,0829.3,5.00,000.00,029.5,027.7,000.0,038.1,030.9,19.3,0000.0,0003.62,0007.50,0002.75
2023-06-10 11:19:00,SystemResetWarning,0829.3,5.01,000.00,029.5,027.7,000.0,038.1,030.9,19.5,0000.0,0003.64,0007.51,0002.76
2023-06-10 11:20:00,SystemResetWarning,0829.3,5.01,000.00,029.5,027.7,000.0,038.1,030.9,19.5,0000.0,0003.62,0007.45,0002.76
2023-06-10 11:21:00,SystemResetWarning,0829.3,5.00,000.00,029.5,027.7,000.0,038.1,030.9,19.5,0000.0,0003.63,0007.52,0002.77
2023-06-10 11:22:00,SystemResetWarning,0829.3,5.00,000.00,029.5,027.7,000.0,038.1,030.9,19.5,0000.0,0003.64,0007.62,0002.77
2023-06-10 11:23:00,SystemResetWarning,0829.3,5.00,000.00,029.5,027.7,000.0,038.1,030.8,19.4,0000.0,0003.63,0007.60,0002.76
2023-06-10 11:24:00,SystemResetWarning,0829.2,5.00,000.00,029.4,027.7,000.0,038.1,030.8,19.5,0000.0,0003.58,0007.89,0002.74
2023-06-10 11:25:00,SystemResetWarning,0829.2,5.00,000.00,029.4,027.7,000.0,038.1,030.8,19.5,0000.0,0003.52,0007.47,0002.72
2023-06-10 11:26:00,SystemResetWarning,0829.2,5.00,000.00,029.4,027.6,000.0,038.1,030.8,19.6,0000.0,0003.50,0007.56,0002.70
2023-06-10 11:27:00,SystemResetWarning,0829.2,5.00,000.00,029.4,027.6,000.0,038.1,030.8,19.6,0000.0,0003.48,0007.76,0002.70
2023-06-10 11:28:00,SystemResetWarning,0829.1,5.00,000.00,029.4,027.6,000.0,038.1,030.9,19.6,0000.0,0003.50,0007.80,0002.70
2023-06-10 11:29:00,SystemResetWarning,0829.1,4.99,000.00,029.4,027.6,000.0,038.1,030.9,19.3,0000.0,0003.50,0007.77,0002.70
2023-06-10 11:30:00,SystemResetWarning,0829.1,5.00,000.00,029.4,027.6,000.0,038.1,030.9,19.3,0000.0,0003.50,0007.95,0002.69
2023-06-10 11:31:00,SystemResetWarning,0829.1,5.00,000.00,029.4,027.6,000.0,038.0,030.9,19.4,0000.0,0003.50,0007.97,0002.69
2023-06-10 11:32:00,SystemResetWarning,0829.1,5.00,000.00,029.4,027.6,000.0,038.0,030.9,19.4,0000.0,0003.48,0007.94,0002.69
2023-06-10 11:33:00,SystemResetWarning,0829.1,5.00,000.00,029.4,027.6,000.0,038.0,030.9,19.4,0000.0,0003.46,0007.83,0002.68
2023-06-10 11:34:00,SystemResetWarning,0829.2,5.00,000.00,029.4,027.6,000.0,038.0,030.8,19.5,0000.0,0003.49,0007.91,0002.69
2023-06-10 11:35:00,SystemResetWarning,0829.1,5.00,000.00,029.4,027.6,000.0,038.0,030.8,19.4,0000.0,0003.51,0007.52,0002.70
2023-06-10 11:36:00,SystemResetWarning,0829.1,5.00,000.00,029.4,027.6,000.0,038.0,030.8,19.4,0000.0,0003.55,0007.82,0002.71
2023-06-10 11:37:00,SystemResetWarning,0829.1,5.00,000.00,029.3,027.6,000.0,038.0,030.8,19.4,0000.0,0003.55,0007.94,0002.72
2023-06-10 11:38:00,SystemResetWarning,0829.2,5.00,000.00,029.3,027.6,000.0,038.0,030.8,19.4,0000.0,0003.58,0007.91,0002.71
2023-06-10 11:39:00,SystemResetWarning,0829.2,5.00,000.00,029.3,027.6,000.0,038.0,030.8,19.4,0000.0,0003.57,0007.93,0002.72
2023-06-10 11:40:00,SystemResetWarning,0829.1,5.00,000.00,029.3,027.6,000.0,038.0,030.8,19.4,0000.0,0003.56,0007.90,0002.72
2023-06-10 11:41:00,SystemResetWarning,0829.1,5.00,000.00,029.3,027.6,000.0,038.0,030.8,19.4,0000.0,0003.53,0007.97,0002.74
2023-06-10 11:42:00,SystemResetWarning,0829.1,5.00,000.00,029.3,027.6,000.0,038.0,030.8,19.4,0000.0,0003.52,0007.98,0002.75
2023-06-10 11:43:00,SystemResetWarning,0829.1,5.00,000.00,029.3,027.6,000.0,038.0,030.8,19.3,0000.0,0003.55,0008.05,0002.75
2023-06-10 11:44:00,SystemResetWarning,0829.1,5.00,000.00,029.3,027.6,000.0,038.0,030.8,19.3,0000.0,0003.59,0008.15,0002.77
2023-06-10 11:45:00,SystemResetWarning,0829.1,5.00,000.00,029.3,027.6,000.0,038.0,030.8,19.2,0000.0,0003.63,0008.18,0002.79
2023-06-10 11:46:00,SystemResetWarning,0829.1,5.00,000.00,029.3,027.6,000.0,038.0,030.8,19.2,0000.0,0003.62,0008.18,0002.79
2023-06-10 11:47:00,SystemResetWarning,0829.1,5.01,000.00,029.3,027.6,000.0,037.9,030.8,19.2,0000.0,0003.62,0007.95,0002.78
2023-06-10 11:48:00,SystemResetWarning,0829.1,5.00,000.00,029.3,027.5,000.0,037.9,030.8,19.2,0000.0,0003.62,0007.64,0002.79
2023-06-10 11:49:00,SystemResetWarning,0829.2,5.00,000.00,029.3,027.5,000.0,037.9,030.7,19.2,0000.0,0003.62,0007.45,0002.80
2023-06-10 11:50:00,SystemResetWarning,0829.1,5.00,000.00,029.3,027.5,000.0,037.9,030.7,19.2,0000.0,0003.59,0007.35,0002.78
2023-06-10 11:51:00,SystemResetWarning,0829.1,5.00,000.00,029.3,027.5,000.0,037.9,030.7,19.2,0000.0,0003.61,0007.42,0002.78
2023-06-10 11:52:00,SystemResetWarning,0829.1,5.00,000.00,029.3,027.5,000.0,037.9,030.7,19.2,0000.0,0003.63,0007.18,0002.78
2023-06-10 11:53:00,SystemResetWarning,0829.1,5.00,000.00,029.3,027.5,000.0,037.9,030.7,19.2,0000.0,0003.63,0006.98,0002.78
2023-06-10 11:54:00,SystemResetWarning,0829.1,5.00,000.00,029.3,027.5,000.0,037.9,030.7,19.1,0000.0,0003.63,0006.90,0002.79
2023-06-10 11:55:00,SystemResetWarning,0829.1,4.99,000.00,029.3,027.5,000.0,037.9,030.8,19.1,0000.0,0003.63,0006.94,0002.78
2023-06-10 11:56:00,SystemResetWarning,0829.1,4.99,000.00,029.3,027.5,000.0,037.9,030.7,19.2,0000.0,0003.60,0007.44,0002.78
2023-06-10 11:57:00,SystemResetWarning,0829.1,5.00,000.00,029.3,027.5,000.0,037.9,030.7,19.2,0000.0,0003.60,0007.58,0002.77
2023-06-10 11:58:00,SystemResetWarning,0829.1,5.00,000.00,029.3,027.5,000.0,037.9,030.7,19.1,0000.0,0003.58,0007.67,0002.76
2023-06-10 11:59:00,SystemResetWarning,0829.1,5.00,000.00,029.3,027.5,000.0,037.9,030.7,19.2,0000.0,0003.58,0007.69,0002.76
